W4TBD-13 Weather Reports


time (UTC)temp
C
wind
direction
speed
KPH
gust
KPH
rain 1hr
cm
rain 24hr
cm
rain mn
cm
humidity
%
barometer
mb
20260507192005 12 21 1.6 3.2 0.00 0.05 0.05 81 1001.2
20260507191504 12 17 1.6 3.2 0.00 0.05 0.05 82 1001.3
20260507191004 12 45 1.6 3.2 0.00 0.05 0.05 82 1001.1
20260507190504 13 4 0.0 1.6 0.00 0.05 0.05 82 1001.2
20260507190005 13 8 1.6 3.2 0.00 0.05 0.05 82 1000.9
20260507185504 13 13 0.0 3.2 0.00 0.05 0.05 82 1001.1
20260507185006 13 14 0.0 3.2 0.00 0.05 0.05 81 1001.1
20260507184505 13 28 1.6 3.2 0.00 0.05 0.05 79 1001.4
20260507184004 13 53 1.6 3.2 0.00 0.05 0.05 78 1001.2
20260507183505 13 306 1.6 1.6 0.00 0.05 0.05 80 1001.1
20260507183004 13 356 0.0 1.6 0.00 0.05 0.05 79 1001.1
20260507182504 13 343 1.6 1.6 0.00 0.05 0.05 78 1001.0
20260507182005 13 344 0.0 1.6 0.00 0.05 0.05 79 1001.0
20260507181504 13 334 0.0 1.6 0.00 0.05 0.05 80 1001.1
20260507181005 13 339 0.0 1.6 0.00 0.05 0.05 79 1001.0
20260507180504 13 343 0.0 1.6 0.00 0.05 0.05 80 1001.5
20260507175504 13 342 0.0 1.6 0.00 0.05 0.05 76 1001.0
20260507175005 13 328 0.0 3.2 0.00 0.05 0.05 80 1001.4
20260507174504 13 319 0.0 3.2 0.00 0.05 0.05 82 1001.6
20260507174004 13 354 0.0 3.2 0.00 0.05 0.05 82 1001.5
20260507173504 13 350 0.0 3.2 0.00 0.05 0.05 81 1001.5
20260507173005 13 3 1.6 1.6 0.00 0.05 0.05 82 1001.8
20260507172504 12 352 0.0 3.2 0.00 0.05 0.05 82 1001.7
20260507172005 12 348 1.6 3.2 0.00 0.05 0.05 83 1001.8
20260507171005 13 53 1.6 3.2 0.00 0.05 0.05 85 1001.6
20260507170004 13 70 1.6 3.2 0.00 0.05 0.05 85 1001.7
20260507165506 13 54 1.6 3.2 0.00 0.05 0.05 84 1001.9
20260507165004 12 43 0.0 3.2 0.00 0.05 0.05 84 1002.2
20260507164505 12 98 1.6 3.2 0.00 0.05 0.05 83 1002.1
20260507164005 12 57 1.6 8.0 0.00 0.05 0.05 85 1002.4
20260507163505 12 47 1.6 8.0 0.00 0.05 0.05 84 1002.0
20260507163005 12 52 0.0 8.0 0.00 0.05 0.05 85 1002.1
20260507162504 12 50 0.0 8.0 0.00 0.05 0.05 84 1002.3
20260507162006 12 33 1.6 8.0 0.00 0.05 0.05 84 1002.3
20260507161504 12 245 3.2 4.8 0.00 0.05 0.05 84 1002.2
20260507161005 12 44 1.6 3.2 0.00 0.05 0.05 84 1002.2
20260507160004 12 49 1.6 4.8 0.00 0.05 0.05 84 1002.1
20260507155504 13 51 0.0 3.2 0.00 0.05 0.05 84 1002.0
20260507155006 13 36 1.6 3.2 0.00 0.05 0.05 85 1002.3
20260507154504 13 39 1.6 3.2 0.00 0.05 0.05 85 1002.3
20260507154005 13 27 1.6 3.2 0.00 0.05 0.05 86 1002.1
20260507153505 13 38 1.6 4.8 0.00 0.05 0.05 85 1002.2
20260507153004 12 39 0.0 4.8 0.00 0.05 0.05 85 1002.3
20260507152504 12 34 0.0 9.7 0.00 0.05 0.05 86 1002.2
20260507152004 13 31 1.6 9.7 0.00 0.05 0.05 86 1002.1
20260507151004 13 3 0.0 1.6 0.00 0.05 0.05 88 1002.0
20260507150504 13 346 1.6 1.6 0.00 0.05 0.05 90 1001.9
20260507150005 13 320 0.0 1.6 0.00 0.05 0.05 90 1002.3
20260507145504 13 320 0.0 1.6 0.00 0.05 0.05 90 1002.2
20260507145004 13 320 0.0 1.6 0.00 0.05 0.05 89 1002.1
20260507144504 13 319 0.0 1.6 0.00 0.05 0.05 90 1002.3
20260507144004 13 318 1.6 3.2 0.00 0.05 0.05 89 1002.3
20260507143004 13 22 1.6 3.2 0.00 0.05 0.05 88 1002.1
20260507142504 13 28 0.0 3.2 0.00 0.05 0.05 90 1002.1
20260507141504 12 353 0.0 3.2 0.00 0.05 0.05 92 1002.2
20260507141004 12 337 0.0 3.2 0.00 0.05 0.05 93 1001.9
20260507140505 13 320 1.6 3.2 0.00 0.05 0.05 95 1002.4
20260507140006 13 342 0.0 1.6 0.00 0.05 0.05 95 1002.4
20260507135505 13 318 0.0 3.2 0.00 0.05 0.05 95 1002.4
20260507134504 13 296 0.0 3.2 0.00 0.05 0.05 94 1002.2
20260507134004 13 3 0.0 3.2 0.00 0.05 0.05 94 1002.4
20260507133504 13 3 1.6 3.2 0.00 0.05 0.05 94 1002.2
20260507133005 13 3 1.6 3.2 0.00 0.05 0.05 95 1002.2
20260507132504 13 6 0.0 3.2 0.00 0.05 0.05 95 1002.0
20260507132004 13 344 1.6 3.2 0.00 0.05 0.05 96 1001.7
20260507131505 13 342 0.0 1.6 0.00 0.05 0.05 97 1001.9
20260507131004 13 318 1.6 1.6 0.00 0.05 0.05 97 1001.5
20260507130505 13 320 1.6 1.6 0.00 0.05 0.05 98 1001.7
20260507130004 13 319 0.0 1.6 0.00 0.05 0.05 98 1001.8
20260507125504 13 319 1.6 1.6 0.00 0.05 0.05 98 1001.7
20260507125004 13 319 0.0 1.6 0.00 0.05 0.05 98 1002.0
20260507124504 12 319 0.0 1.6 0.00 0.05 0.05 99 1002.1
20260507124004 12 319 0.0 1.6 0.00 0.05 0.05 99 1002.1
20260507123504 12 319 0.0 1.6 0.00 0.05 0.05 99 1002.1
20260507122504 12 319 0.0 1.6 0.00 0.05 0.05 99 1002.2
20260507121005 12 319 0.0 0.0 0.00 0.05 0.05 99 1001.4
20260507120504 12 319 0.0 0.0 0.00 0.05 0.05 99 1001.6
20260507120004 12 319 0.0 1.6 0.00 0.05 0.05 99 1001.6
20260507115005 12 320 0.0 1.6 0.00 0.05 0.05 99 1001.8
20260507114505 12 320 0.0 1.6 0.00 0.05 0.05 99 1002.0
20260507114004 12 320 0.0 1.6 0.00 0.05 0.05 99 1001.9
20260507113504 12 319 0.0 1.6 0.00 0.05 0.05 99 1002.1
20260507112504 12 319 0.0 1.6 0.00 0.05 0.05 98 1001.7
20260507112004 12 319 0.0 1.6 0.00 0.05 0.05 99 1001.6
20260507111506 12 319 0.0 0.0 0.03 0.05 0.05 98 1001.5
20260507110005 12 319 0.0 0.0 0.03 0.05 0.05 98 1001.5
20260507105504 13 319 0.0 0.0 0.03 0.05 0.05 98 1001.3
20260507105004 13 318 0.0 0.0 0.03 0.05 0.05 98 1001.3
20260507104504 13 317 0.0 0.0 0.03 0.05 0.05 98 1001.3
20260507104004 13 316 0.0 0.0 0.03 0.05 0.05 98 1001.1
20260507103504 13 316 0.0 0.0 0.03 0.05 0.05 98 1001.1
20260507102504 13 306 0.0 1.6 0.05 0.05 0.05 98 1001.1
20260507102006 13 314 0.0 1.6 0.05 0.05 0.05 98 1000.9
20260507101003 13 325 0.0 1.6 0.03 0.03 0.03 98 1001.2
20260507100504 13 326 1.6 1.6 0.03 0.03 0.03 98 1000.9
20260507100004 13 318 1.6 1.6 0.03 0.03 0.03 98 1000.9
20260507095504 13 329 1.6 1.6 0.03 0.03 0.03 98 1000.9
20260507094504 13 347 1.6 3.2 0.03 0.03 0.03 97 1000.8
20260507093504 13 348 1.6 4.8 0.03 0.03 0.03 97 1000.8
20260507093004 14 350 1.6 4.8 0.03 0.03 0.03 97 1000.6
20260507092504 15 353 1.6 4.8 0.00 0.00 0.00 96 1000.8
20260507092004 15 350 3.2 4.8 0.00 0.00 0.00 96 1000.9
20260507091505 16 351 1.6 3.2 0.00 0.00 0.00 96 1000.7
20260507091004 16 351 1.6 3.2 0.00 0.00 0.00 96 1000.5
20260507090005 18 342 1.6 3.2 0.00 0.00 0.00 97 1000.1
20260507085504 18 343 1.6 1.6 0.00 0.00 0.00 96 1000.1
20260507085004 18 344 0.0 1.6 0.00 0.00 0.00 96 1000.3
20260507084504 18 344 0.0 1.6 0.00 0.00 0.00 96 1000.2
20260507084003 18 344 0.0 1.6 0.00 0.00 0.00 96 1000.2
20260507083504 18 344 1.6 1.6 0.00 0.00 0.00 96 999.9
20260507083004 18 344 0.0 1.6 0.00 0.00 0.00 95 1000.0
20260507082504 18 345 0.0 1.6 0.00 0.00 0.00 95 999.8
20260507082004 18 345 0.0 1.6 0.00 0.00 0.00 95 999.7
20260507081504 18 344 1.6 3.2 0.00 0.00 0.00 95 999.9
20260507080504 18 335 1.6 3.2 0.00 0.00 0.00 95 999.9
20260507080005 18 343 3.2 3.2 0.00 0.00 0.00 95 999.8
20260507075004 19 300 0.0 0.0 0.00 0.00 0.00 94 999.6
20260507074503 19 298 0.0 1.6 0.00 0.00 0.00 94 999.0
20260507071004 19 262 1.6 3.2 0.00 0.00 0.00 93 999.6
20260507070504 19 278 0.0 3.2 0.00 0.00 0.00 93 999.5
20260507070009 19 265 1.6 3.2 0.00 0.00 0.00 92 999.8
20260507065504 19 302 0.0 3.2 0.00 0.00 0.00 92 999.7
20260507065004 19 309 1.6 1.6 0.00 0.00 0.00 91 999.5
20260507064504 20 338 1.6 4.8 0.00 0.00 0.00 90 999.5
20260507064003 20 330 0.0 4.8 0.00 0.00 0.00 89 999.5
20260507063505 20 235 3.2 4.8 0.00 0.00 0.00 88 999.4
20260507063005 20 306 0.0 1.6 0.00 0.00 0.00 87 999.2
20260507062003 20 326 1.6 3.2 0.00 0.00 0.00 87 999.4
20260507061005 20 254 0.0 1.6 0.00 0.00 0.00 86 999.0
20260507060504 20 210 1.6 1.6 0.00 0.00 0.00 86 999.2
20260507060003 20 323 0.0 1.6 0.00 0.00 0.00 87 999.3
20260507055504 20 236 1.6 1.6 0.00 0.00 0.00 86 999.3
20260507055004 20 156 1.6 3.2 0.00 0.00 0.00 87 999.1
20260507054504 20 2 0.0 3.2 0.00 0.00 0.00 87 999.3
20260507053504 20 274 0.0 1.6 0.00 0.00 0.00 86 999.4
20260507053004 20 314 0.0 1.6 0.00 0.00 0.00 86 999.4
20260507052505 20 285 0.0 4.8 0.00 0.00 0.00 86 999.5
20260507051504 20 0 0.0 1.6 0.00 0.00 0.00 86 999.8
20260507051003 20 329 1.6 3.2 0.00 0.00 0.00 86 999.9
20260507050004 20 43 0.0 8.0 0.00 0.00 0.00 85 1000.3
20260507045504 20 165 1.6 8.0 0.00 0.00 0.00 85 1000.5
20260507044505 20 343 1.6 3.2 0.00 0.00 0.00 86 1000.6
20260507044003 20 155 1.6 3.2 0.00 0.00 0.00 85 1000.6
20260507043504 20 214 1.6 1.6 0.00 0.00 0.00 86 1000.5
20260507043004 20 271 1.6 1.6 0.00 0.00 0.00 86 1000.9
20260507042504 20 303 1.6 1.6 0.00 0.00 0.00 85 1000.9
20260507042005 20 326 0.0 1.6 0.00 0.00 0.00 85 1000.9
20260507041504 20 320 1.6 3.2 0.00 0.00 0.00 86 1000.9
20260507041003 20 188 1.6 3.2 0.00 0.00 0.00 86 1000.4
20260507040504 20 275 1.6 3.2 0.00 0.00 0.00 86 1000.5
20260507040004 20 6 0.0 3.2 0.00 0.00 0.00 86 1000.6
20260507035505 20 293 0.0 1.6 0.00 0.00 0.00 86 1000.3
20260507035004 20 322 0.0 1.6 0.00 0.00 0.00 86 1000.3
20260507034504 20 313 1.6 3.2 0.00 0.00 0.00 86 1000.8
20260507034004 20 280 1.6 3.2 0.00 0.00 0.00 86 1000.5
20260507033505 20 297 1.6 3.2 0.00 0.00 0.00 87 1000.6
20260507033004 20 317 1.6 1.6 0.00 0.00 0.00 87 1000.6
20260507032504 20 311 0.0 3.2 0.00 0.00 0.00 87 1000.3
20260507032004 20 217 0.0 3.2 0.00 0.00 0.00 87 1000.1
20260507031505 20 254 1.6 3.2 0.00 0.00 0.00 87 1000.1
20260507031004 20 230 1.6 3.2 0.00 0.00 0.00 87 1000.1
20260507030505 20 187 1.6 3.2 0.00 0.00 0.00 88 1000.1
20260507025504 20 98 0.0 1.6 0.00 0.00 0.00 88 1000.0
20260507024504 20 290 1.6 3.2 0.00 0.00 0.00 88 999.9
20260507023505 20 225 1.6 4.8 0.00 0.00 0.00 87 1000.1
20260507023004 20 259 1.6 4.8 0.00 0.00 0.00 87 1000.3
20260507022503 20 216 1.6 3.2 0.00 0.00 0.00 87 1000.2
20260507022004 20 263 0.0 1.6 0.00 0.00 0.00 87 1000.5
20260507021004 20 349 1.6 3.2 0.00 0.00 0.00 87 1000.4
20260507020505 20 227 1.6 3.2 0.00 0.00 0.00 87 1000.4
20260507020003 20 221 1.6 1.6 0.00 0.00 0.00 88 1000.7
20260507015505 20 194 0.0 1.6 0.00 0.00 0.00 88 1000.9
20260507015004 20 295 0.0 1.6 0.00 0.00 0.00 87 1000.7
20260507014505 20 285 0.0 1.6 0.00 0.00 0.00 87 1000.7
20260507014005 20 209 0.0 1.6 0.00 0.00 0.00 87 1000.9
20260507013505 20 321 0.0 1.6 0.00 0.00 0.00 86 1000.5
20260507013005 20 295 1.6 1.6 0.00 0.00 0.00 86 1000.6
20260507012505 20 213 0.0 1.6 0.00 0.00 0.00 86 1000.5
20260507012005 20 235 0.0 1.6 0.00 0.00 0.00 86 1000.5
20260507011505 20 216 1.6 1.6 0.00 0.00 0.00 86 1000.3
20260507011004 20 309 0.0 1.6 0.00 0.00 0.00 86 1000.4
20260507010506 20 340 0.0 1.6 0.00 0.00 0.00 86 1000.5
20260507005006 20 281 1.6 1.6 0.00 0.00 0.00 85 1000.3
20260507004504 20 222 0.0 1.6 0.00 0.00 0.00 85 1000.2
20260507004004 20 240 0.0 1.6 0.00 0.00 0.00 85 1000.1
20260507003505 20 285 0.0 1.6 0.00 0.00 0.00 84 1000.5
20260507003004 20 274 0.0 3.2 0.00 0.00 0.00 84 1000.4
20260507002004 20 176 1.6 1.6 0.00 0.00 0.00 84 1000.6
20260507001505 20 171 0.0 0.0 0.00 0.00 0.00 84 1000.4
20260507000505 21 345 0.0 1.6 0.00 0.00 0.00 83 1000.6
20260506235505 21 341 0.0 3.2 0.00 0.00 0.00 82 1000.6
20260506235005 21 342 1.6 3.2 0.00 0.00 0.00 82 1000.3
20260506234505 21 296 1.6 3.2 0.00 0.00 0.00 81 1000.6
20260506234005 21 245 0.0 3.2 0.00 0.00 0.00 81 1000.1
20260506233505 21 330 0.0 3.2 0.00 0.00 0.00 81 1000.0
20260506233006 21 309 1.6 3.2 0.00 0.00 0.00 80 1000.1
20260506232504 21 65 1.6 3.2 0.00 0.00 0.00 80 1000.1
20260506232004 21 293 1.6 3.2 0.00 0.00 0.00 80 1000.2
20260506231506 21 232 1.6 3.2 0.00 0.00 0.00 79 1000.1
20260506231004 21 356 1.6 3.2 0.00 0.00 0.00 79 1000.1
20260506230505 21 238 1.6 3.2 0.00 0.00 0.00 78 1000.2
20260506225506 21 355 0.0 1.6 0.00 0.00 0.00 79 1000.0
20260506225004 21 307 0.0 1.6 0.00 0.00 0.00 79 1000.2
20260506224505 21 327 0.0 1.6 0.00 0.00 0.00 78 1000.1
20260506224004 21 350 0.0 1.6 0.00 0.00 0.00 78 1000.0
20260506223505 21 222 1.6 1.6 0.00 0.00 0.00 78 1000.5
20260506223005 21 320 0.0 3.2 0.00 0.00 0.00 78 1000.1
20260506222504 21 348 0.0 3.2 0.00 0.00 0.00 77 1000.0
20260506222005 21 300 1.6 3.2 0.00 0.00 0.00 77 1000.2
20260506221505 21 299 1.6 1.6 0.00 0.00 0.00 77 1000.3
20260506221005 21 299 0.0 9.7 0.00 0.00 0.00 77 1000.4
20260506220504 21 323 3.2 9.7 0.00 0.00 0.00 76 1000.0
20260506214504 21 308 1.6 4.8 0.00 0.00 0.00 75 1000.0
20260506214005 21 261 3.2 4.8 0.00 0.00 0.00 75 1000.2
20260506213004 21 97 1.6 3.2 0.00 0.00 0.00 75 1000.3
20260506212506 21 288 1.6 3.2 0.00 0.00 0.00 75 1000.3
20260506212005 21 277 1.6 3.2 0.00 0.00 0.00 76 1000.5
20260506211505 21 316 1.6 4.8 0.00 0.00 0.00 76 1000.5
20260506211004 21 349 1.6 8.0 0.00 0.00 0.00 76 1000.4
20260506210505 21 309 1.6 8.0 0.00 0.00 0.00 77 1000.1
20260506210004 21 297 1.6 3.2 0.00 0.00 0.00 77 1000.2
20260506205505 21 331 1.6 4.8 0.00 0.00 0.00 77 999.9
20260506204505 21 305 1.6 3.2 0.00 0.00 0.00 79 1000.5
20260506203504 21 279 1.6 4.8 0.00 0.00 0.00 78 1000.1
20260506202504 21 182 3.2 4.8 0.00 0.00 0.00 79 1000.4
20260506202005 21 314 1.6 4.8 0.00 0.00 0.00 79 1000.2
20260506201504 21 333 1.6 4.8 0.00 0.00 0.00 80 1000.0
20260506201004 21 6 1.6 4.8 0.00 0.00 0.00 80 1000.2
20260506200504 21 328 1.6 4.8 0.00 0.00 0.00 80 1000.2
20260506200005 21 349 0.0 9.7 0.00 0.00 0.00 80 1000.0
20260506195504 21 316 3.2 12.9 0.00 0.00 0.00 80 1000.1
20260506194004 21 168 1.6 9.7 0.00 0.00 0.00 79 999.3
20260506193506 21 326 3.2 9.7 0.00 0.00 0.00 79 999.5
20260506193004 20 335 1.6 4.8 0.00 0.00 0.00 79 999.4